Zurück zum Katalog

FENGYUN 1C DEB

AktivSSO
NORAD 30023·DEBRIS·🇨🇳 China

Gestartet May 10, 1999 von Taiyuan Satellite Launch Center

Loading…

Nächste Überflüge (nächste 24 Stunden)

TLE

AktuellSource: Space-Track

Epoche: Sep 14, 2026, 20:32 UTC

1 30023U 99025MY  26257.85559635  .00000426  00000-0  25489-3 0  9994
2 30023  99.2766 106.2533 0046822  13.1230   2.2316 14.12226560 10937

Verfolge FENGYUN 1C DEB in Echtzeit mit AllMySat

Download on the App Store